DW8586 Weather Reports


Display with metric or nautical units.
time (UTC)temp
F
wind
direction
speed
MPH
gust
MPH
rain 1hr
in
rain 24hr
in
rain mn
in
humidity
%
barometer
mb
20191213163239 57 183 0.0 3.0 0.00 0.00 0.00 94 1019.7
20191213161710 57 142 0.0 2.0 0.00 0.00 0.00 94 1019.6
20191213160238 57 150 0.0 3.0 0.00 0.00 0.00 94 1019.0
20191213154704 57 147 0.0 3.0 0.00 0.00 0.00 94 1019.1
20191213153226 57 146 0.0 3.0 0.00 0.00 0.00 94 1019.1
20191213151639 57 134 0.0 2.0 0.00 0.00 0.00 93 1018.8
20191213150234 57 137 0.0 3.0 0.00 0.00 0.00 93 1018.8
20191213144726 58 142 0.0 3.0 0.00 0.00 0.00 93 1018.8
20191213143140 58 140 1.0 4.0 0.00 0.00 0.00 93 1018.8
20191213141712 57 128 0.0 1.0 0.00 0.00 0.00 93 1019.2
20191213140228 57 128 0.0 1.0 0.00 0.00 0.00 93 1019.2
20191213134618 57 135 0.0 2.0 0.00 0.00 0.00 94 1019.3
20191213133324 58 148 0.0 1.0 0.00 0.00 0.00 94 1019.4
20191213131831 58 111 0.0 0.0 0.00 0.00 0.00 94 1019.3
20191213130215 58 111 0.0 0.0 0.00 0.00 0.00 94 1019.1
20191213124650 58 109 0.0 0.0 0.00 0.00 0.00 95 1019.0
20191213123254 58 109 0.0 1.0 0.00 0.00 0.00 95 1019.0
20191213121702 58 111 0.0 1.0 0.00 0.00 0.00 95 1018.9
20191213120155 58 136 0.0 0.0 0.00 0.00 0.00 96 1019.1
20191213114646 58 136 0.0 0.0 0.00 0.00 0.00 96 1019.1
20191213113244 58 133 0.0 3.0 0.00 0.00 0.00 96 1019.4
20191213111640 58 144 0.0 2.0 0.00 0.00 0.00 96 1019.4
20191213110148 58 346 0.0 0.0 0.00 0.00 0.00 96 1019.6
20191213104601 59 346 0.0 0.0 0.00 0.00 0.00 96 1019.9
20191213103102 59 346 0.0 0.0 0.00 0.00 0.00 96 1019.9
20191213101700 59 346 0.0 1.0 0.00 0.00 0.00 96 1019.9
20191213100105 59 318 0.0 0.0 0.00 0.00 0.00 96 1020.1
20191213094723 59 318 0.0 0.0 0.00 0.00 0.00 96 1020.4
20191213093059 59 318 0.0 1.0 0.00 0.00 0.00 96 1020.4
20191213091645 59 283 0.0 0.0 0.00 0.00 0.00 96 1020.5
20191213090150 58 283 0.0 0.0 0.00 0.00 0.00 96 1020.3
20191213084559 58 283 0.0 0.0 0.00 0.00 0.00 96 1020.3
20191213083119 58 283 0.0 0.0 0.00 0.00 0.00 95 1020.5
20191213081550 58 283 0.0 0.0 0.00 0.00 0.00 95 1020.6
20191213080105 58 283 0.0 0.0 0.00 0.00 0.00 95 1020.9
20191213074543 58 283 0.0 1.0 0.00 0.00 0.00 95 1020.9
20191213073126 58 284 0.0 0.0 0.00 0.00 0.00 95 1020.6
20191213071550 58 284 0.0 0.0 0.00 0.00 0.00 95 1020.6
20191213070046 59 283 0.0 0.0 0.00 0.00 0.00 95 1020.7
20191213064531 59 284 0.0 0.0 0.00 0.00 0.00 95 1020.5
20191213063106 59 284 0.0 0.0 0.00 0.00 0.00 94 1020.3
20191213061635 59 284 0.0 0.0 0.00 0.00 0.00 94 1020.5
20191213060055 59 284 0.0 0.0 0.00 0.00 0.00 94 1020.5
20191213054534 59 284 0.0 2.0 0.00 0.00 0.00 94 1020.8
20191213053044 59 275 0.0 2.0 0.00 0.00 0.00 93 1020.7
20191213051521 59 275 0.0 2.0 0.00 0.00 0.00 93 1020.6
20191213050031 59 276 0.0 1.0 0.00 0.00 0.00 92 1020.7
20191213044521 59 279 0.0 3.0 0.00 0.00 0.00 92 1020.9
20191213043116 60 274 0.0 1.0 0.00 0.00 0.00 91 1020.6
20191213041538 60 274 0.0 0.0 0.00 0.00 0.00 91 1020.7
20191213040047 60 274 0.0 0.0 0.00 0.00 0.00 90 1020.7
20191213034655 60 274 0.0 0.0 0.00 0.00 0.00 90 1020.8
20191213033024 61 274 0.0 0.0 0.00 0.00 0.00 90 1020.8
20191213031542 61 274 0.0 0.0 0.00 0.00 0.00 90 1020.9
20191213030017 61 274 0.0 0.0 0.00 0.00 0.00 90 1020.9
20191213024550 62 274 0.0 1.0 0.00 0.00 0.00 90 1021.1
20191213023021 62 274 0.0 0.0 0.00 0.00 0.00 90 1021.1
20191213021549 62 274 0.0 1.0 0.00 0.00 0.00 89 1021.0
20191213020017 62 281 0.0 3.0 0.00 0.00 0.00 89 1021.1
20191213014546 62 265 0.0 4.0 0.00 0.00 0.00 89 1021.2
20191213013024 62 284 2.0 6.0 0.00 0.00 0.00 88 1021.3
20191213011515 63 290 1.0 7.0 0.00 0.00 0.00 88 1021.1
20191213010035 63 296 1.0 6.0 0.00 0.00 0.00 87 1021.1
20191213004514 64 287 1.0 3.0 0.00 0.00 0.00 85 1020.7
20191213003032 64 258 2.0 4.0 0.00 0.00 0.00 84 1020.7
20191213001511 65 271 3.0 6.0 0.00 0.00 0.00 83 1020.8
20191213000043 65 273 3.0 9.0 0.00 0.00 0.00 82 1020.8
20191212234508 66 293 3.0 8.0 0.00 0.00 0.00 81 1020.8
20191212233005 66 279 1.0 6.0 0.00 0.00 0.00 80 1020.8
20191212231511 66 313 2.0 6.0 0.00 0.00 0.00 80 1020.8
20191212230007 66 281 1.0 7.0 0.00 0.00 0.00 79 1020.8
20191212224506 67 254 3.0 6.0 0.00 0.00 0.00 79 1020.9
20191212223012 67 258 2.0 6.0 0.00 0.00 0.00 79 1020.9
20191212221506 67 318 2.0 5.0 0.00 0.00 0.00 79 1020.9
20191212220009 67 350 3.0 6.0 0.00 0.00 0.00 78 1021.0
20191212214502 67 323 0.0 6.0 0.00 0.00 0.00 79 1021.1
20191212213002 66 254 2.0 7.0 0.00 0.00 0.00 79 1021.3
20191212211758 67 279 4.0 8.0 0.00 0.00 0.00 77 1021.5
20191212210256 67 269 4.0 9.0 0.00 0.00 0.00 76 1021.5
20191212204852 67 296 3.0 7.0 0.00 0.00 0.00 77 1021.6
20191212203156 66 331 2.0 6.0 0.00 0.00 0.00 76 1021.8
20191212201727 65 311 2.0 5.0 0.00 0.00 0.00 76 1021.9
20191212200116 65 288 1.0 5.0 0.00 0.00 0.00 76 1022.2
20191212194809 64 330 2.0 5.0 0.00 0.00 0.00 76 1021.9
20191212193148 64 283 1.0 6.0 0.00 0.00 0.00 75 1022.1
20191212191635 64 298 1.0 5.0 0.00 0.00 0.00 73 1022.3
20191212190145 64 267 0.0 4.0 0.00 0.00 0.00 73 1022.4
20191212184728 63 255 0.0 2.0 0.00 0.00 0.00 74 1022.6
20191212183151 62 46 0.0 2.0 0.00 0.00 0.00 76 1022.7
20191212181711 62 52 1.0 3.0 0.00 0.00 0.00 77 1022.6
20191212180323 60 58 0.0 2.0 0.00 0.00 0.00 81 1022.7
20191212174702 59 350 0.0 1.0 0.00 0.00 0.00 85 1022.7
20191212173159 58 315 0.0 0.0 0.00 0.00 0.00 87 1022.8
20191212171632 57 239 0.0 0.0 0.00 0.00 0.00 88 1022.8
20191212170053 56 239 0.0 1.0 0.00 0.00 0.00 89 1022.8
20191212164558 56 326 0.0 0.0 0.00 0.00 0.00 89 1022.7